Location: Cerbedi�res
(48.2182°N, 1.4849°W)
Time: 06:07:30
(UTC+00:00)

Cosmos 1844 Rocket - Pass Details

Date: 03 March 2021
Orbit: 826 x 843 km, 71.0° (Epoch: 11 April)

Event Time Altitude Azimuth Distance (km) Brightness Sun altitude
Rises 20:04:52 0° 326° (NNW) 3,375 6.6 -22.5°
Reaches altitude 10° 20:07:26 10° 319° (NW) 2,437 5.9 -22.9°
Maximum altitude 20:12:34 39° 253° (WSW) 1,225 3.9 -23.7°
Drops below altitude 10° 20:17:40 10° 186° (S) 2,423 4.9 -24.5°
Enters shadow 20:17:49 - 185° (S) 2,474 5.0 -24.6°
